| time (UTC) | temp F | wind direction | speed MPH | gust MPH | rain 1hr in | rain 24hr in | rain mn in | humidity % | barometer mb |
| 20260505022519 | 68 | 13 | 2.0 | 4.0 | 0.00 | 0.00 | 0.00 | 65 | 1009.0 |
| 20260505021519 | 69 | 45 | 2.0 | 7.0 | 0.00 | 0.00 | 0.00 | 63 | 1009.0 |
| 20260505020520 | 70 | 37 | 3.0 | 7.0 | 0.00 | 0.00 | 0.00 | 62 | 1009.0 |
| 20260505015539 | 70 | 0 | 3.0 | 6.0 | 0.00 | 0.00 | 0.00 | 61 | 1009.2 |
| 20260505014520 | 71 | 345 | 3.0 | 7.0 | 0.00 | 0.00 | 0.00 | 59 | 1009.4 |
| 20260505013519 | 71 | 18 | 3.0 | 7.0 | 0.00 | 0.00 | 0.00 | 57 | 1009.5 |
| 20260505012520 | 71 | 342 | 4.0 | 8.0 | 0.00 | 0.00 | 0.00 | 57 | 1009.6 |
| 20260505011519 | 71 | 339 | 4.0 | 7.0 | 0.00 | 0.00 | 0.00 | 56 | 1009.7 |
| 20260505010517 | 71 | 337 | 5.0 | 10.0 | 0.00 | 0.00 | 0.00 | 56 | 1009.7 |
| 20260505005540 | 72 | 333 | 6.0 | 11.0 | 0.00 | 0.00 | 0.00 | 54 | 1009.8 |
| 20260505004520 | 72 | 342 | 4.0 | 6.0 | 0.00 | 0.00 | 0.00 | 54 | 1009.8 |
| 20260505003520 | 72 | 319 | 5.0 | 8.0 | 0.00 | 0.00 | 0.00 | 53 | 1009.8 |
| 20260505002537 | 72 | 342 | 5.0 | 9.0 | 0.00 | 0.00 | 0.00 | 54 | 1009.8 |
| 20260505001517 | 73 | 331 | 5.0 | 8.0 | 0.00 | 0.00 | 0.00 | 55 | 1010.0 |
| 20260505000518 | 72 | 324 | 3.0 | 5.0 | 0.00 | 0.00 | 0.00 | 57 | 1010.1 |
| 20260504235521 | 68 | 93 | 3.0 | 5.0 | 0.00 | 0.00 | 0.00 | 72 | 1010.0 |
| 20260504234520 | 65 | 145 | 2.0 | 4.0 | 0.00 | 0.00 | 0.00 | 76 | 1009.9 |
| 20260504233518 | 66 | 149 | 3.0 | 5.0 | 0.00 | 0.00 | 0.00 | 77 | 1009.9 |
| 20260504232518 | 67 | 156 | 4.0 | 6.0 | 0.00 | 0.00 | 0.00 | 76 | 1010.1 |
| 20260504231518 | 68 | 148 | 3.0 | 5.0 | 0.00 | 0.00 | 0.00 | 72 | 1010.1 |
| 20260504230518 | 68 | 151 | 2.0 | 3.0 | 0.00 | 0.00 | 0.00 | 72 | 1010.4 |
| 20260504225521 | 67 | 134 | 3.0 | 5.0 | 0.00 | 0.00 | 0.00 | 74 | 1010.4 |
| 20260504224519 | 66 | 116 | 4.0 | 7.0 | 0.00 | 0.00 | 0.00 | 76 | 1010.4 |
| 20260504223518 | 67 | 158 | 4.0 | 6.0 | 0.00 | 0.00 | 0.00 | 74 | 1010.4 |
| 20260504222519 | 67 | 134 | 4.0 | 8.0 | 0.00 | 0.00 | 0.00 | 75 | 1010.6 |
| 20260504221518 | 67 | 129 | 3.0 | 5.0 | 0.00 | 0.00 | 0.00 | 72 | 1010.8 |
| 20260504220519 | 67 | 135 | 4.0 | 7.0 | 0.00 | 0.00 | 0.00 | 71 | 1010.9 |
| 20260504215559 | 66 | 145 | 5.0 | 8.0 | 0.00 | 0.00 | 0.00 | 69 | 1011.0 |
| 20260504214519 | 65 | 149 | 5.0 | 9.0 | 0.00 | 0.00 | 0.00 | 73 | 1010.9 |
| 20260504213519 | 65 | 154 | 5.0 | 8.0 | 0.00 | 0.00 | 0.00 | 75 | 1011.0 |
| 20260504212520 | 65 | 153 | 5.0 | 7.0 | 0.00 | 0.00 | 0.00 | 75 | 1011.0 |
| 20260504211519 | 64 | 153 | 4.0 | 6.0 | 0.00 | 0.00 | 0.00 | 79 | 1011.2 |
| 20260504210519 | 63 | 156 | 6.0 | 7.0 | 0.00 | 0.00 | 0.00 | 80 | 1011.1 |
| 20260504205520 | 63 | 160 | 6.0 | 10.0 | 0.00 | 0.00 | 0.00 | 81 | 1011.1 |
| 20260504204519 | 63 | 162 | 7.0 | 9.0 | 0.00 | 0.00 | 0.00 | 82 | 1011.0 |
| 20260504203520 | 65 | 150 | 6.0 | 10.0 | 0.00 | 0.00 | 0.00 | 76 | 1011.2 |
| 20260504202520 | 64 | 138 | 3.0 | 6.0 | 0.00 | 0.00 | 0.00 | 76 | 1011.4 |
| 20260504201517 | 63 | 138 | 3.0 | 6.0 | 0.00 | 0.00 | 0.00 | 80 | 1011.6 |
| 20260504200517 | 62 | 140 | 3.0 | 6.0 | 0.00 | 0.00 | 0.00 | 81 | 1011.6 |
| 20260504195520 | 62 | 129 | 4.0 | 6.0 | 0.00 | 0.00 | 0.00 | 81 | 1011.5 |
| 20260504194521 | 61 | 130 | 4.0 | 6.0 | 0.00 | 0.00 | 0.00 | 82 | 1011.4 |
| 20260504193517 | 60 | 141 | 4.0 | 6.0 | 0.00 | 0.00 | 0.00 | 82 | 1011.5 |
| 20260504192537 | 59 | 143 | 4.0 | 6.0 | 0.00 | 0.00 | 0.00 | 85 | 1011.5 |
| 20260504191518 | 59 | 157 | 5.0 | 8.0 | 0.00 | 0.00 | 0.00 | 85 | 1011.4 |
| 20260504185521 | 59 | 151 | 5.0 | 7.0 | 0.00 | 0.00 | 0.00 | 85 | 1011.5 |
| 20260504184518 | 58 | 153 | 5.0 | 7.0 | 0.00 | 0.00 | 0.00 | 87 | 1011.4 |
| 20260504183518 | 58 | 157 | 4.0 | 7.0 | 0.00 | 0.00 | 0.00 | 87 | 1011.4 |
| 20260504182519 | 59 | 128 | 3.0 | 8.0 | 0.00 | 0.00 | 0.00 | 87 | 1011.8 |
| 20260504181518 | 58 | 121 | 4.0 | 6.0 | 0.00 | 0.00 | 0.00 | 87 | 1011.7 |
| 20260504180518 | 58 | 122 | 3.0 | 6.0 | 0.00 | 0.00 | 0.00 | 88 | 1011.6 |
| 20260504175519 | 57 | 114 | 3.0 | 6.0 | 0.00 | 0.00 | 0.00 | 89 | 1011.6 |
| 20260504174519 | 56 | 154 | 4.0 | 5.0 | 0.00 | 0.00 | 0.00 | 89 | 1011.4 |
| 20260504173519 | 56 | 156 | 5.0 | 7.0 | 0.00 | 0.00 | 0.00 | 89 | 1011.4 |
| 20260504172519 | 56 | 157 | 5.0 | 7.0 | 0.00 | 0.00 | 0.00 | 87 | 1011.4 |
| 20260504171519 | 56 | 146 | 5.0 | 7.0 | 0.00 | 0.00 | 0.00 | 85 | 1011.3 |
| 20260504170539 | 56 | 154 | 4.0 | 6.0 | 0.00 | 0.00 | 0.00 | 86 | 1011.3 |
| 20260504150517 | 53 | 174 | 1.0 | 2.0 | 0.00 | 0.00 | 0.00 | 88 | 1010.4 |
| 20260504140518 | 53 | 112 | 0.0 | 2.0 | 0.00 | 0.00 | 0.00 | 88 | 1009.6 |
| 20260504130518 | 52 | 226 | 0.0 | 2.0 | 0.00 | 0.00 | 0.00 | 87 | 1009.0 |
| 20260504110517 | 53 | 154 | 1.0 | 2.0 | 0.00 | 0.00 | 0.00 | 82 | 1008.8 |
| 20260504100518 | 55 | 45 | 0.0 | 1.0 | 0.00 | 0.00 | 0.00 | 78 | 1008.9 |
| 20260504081537 | 55 | 226 | 2.0 | 3.0 | 0.00 | 0.00 | 0.00 | 81 | 1008.7 |
| 20260504080537 | 55 | 217 | 1.0 | 3.0 | 0.00 | 0.00 | 0.00 | 78 | 1008.4 |
| 20260504050519 | 61 | 299 | 3.0 | 3.0 | 0.00 | 0.00 | 0.00 | 68 | 1008.8 |
| 20260504045519 | 63 | 117 | 1.0 | 3.0 | 0.00 | 0.00 | 0.00 | 61 | 1008.8 |
| 20260504044519 | 64 | 14 | 1.0 | 2.0 | 0.00 | 0.00 | 0.00 | 58 | 1008.9 |
| 20260504043520 | 64 | 331 | 1.0 | 3.0 | 0.00 | 0.00 | 0.00 | 56 | 1008.9 |
| 20260504042519 | 65 | 313 | 2.0 | 3.0 | 0.00 | 0.00 | 0.00 | 56 | 1009.0 |
| 20260504041517 | 65 | 309 | 2.0 | 4.0 | 0.00 | 0.00 | 0.00 | 54 | 1009.0 |
| 20260504040520 | 65 | 306 | 3.0 | 4.0 | 0.00 | 0.00 | 0.00 | 54 | 1008.9 |
| 20260504035519 | 66 | 1 | 0.0 | 2.0 | 0.00 | 0.00 | 0.00 | 54 | 1008.7 |
| 20260504034520 | 67 | 312 | 1.0 | 3.0 | 0.00 | 0.00 | 0.00 | 55 | 1008.7 |
| 20260504033520 | 67 | 323 | 1.0 | 2.0 | 0.00 | 0.00 | 0.00 | 54 | 1008.7 |
| 20260504032540 | 68 | 315 | 2.0 | 3.0 | 0.00 | 0.00 | 0.00 | 54 | 1008.7 |
| 20260504031517 | 69 | 76 | 1.0 | 3.0 | 0.00 | 0.00 | 0.00 | 52 | 1008.6 |
| 20260504030520 | 70 | 42 | 1.0 | 4.0 | 0.00 | 0.00 | 0.00 | 50 | 1008.9 |
| 20260504025521 | 70 | 36 | 2.0 | 7.0 | 0.00 | 0.00 | 0.00 | 50 | 1009.0 |
| 20260504024538 | 71 | 19 | 2.0 | 8.0 | 0.00 | 0.00 | 0.00 | 50 | 1008.9 |
| 20260504023518 | 72 | 16 | 3.0 | 5.0 | 0.00 | 0.00 | 0.00 | 49 | 1009.1 |